CZ-2F R/B

Last updated on Wed Nov 12 2025 00:02:09 GMT+0000 (Coordinated Universal Time)

1 66264U 25246B 25315.71985729 .07144800 78765-5 27539-3 0 9998 2 66264 41.4470 199.5498 0029904 222.3856 137.4700 16.40312977 1792

Satellite not in orbit